Location: Aranbee
(34.0885°N, 118.2342°W)
Time: 02:33:20
(UTC+00:00)

deb Explorer IX - Pass Details

Date: 29 November 2020
Orbit: 536 x 1104 km, 38.8° (Epoch: 25 January)

Event Time Altitude Azimuth Distance (km) Brightness Sun altitude
Rises 03:08:25 0° 283° (WNW) 3,307 ? -29.4°
Reaches altitude 10° 03:11:10 10° 289° (WNW) 2,276 ? -30.0°
Enters shadow 03:14:35 35° 312° (NW) 1,126 ? -30.7°
